User: anonymous   Login
Location: Unspecified
(0.0000°N, 0.0000°E)
Time: 00:23:28
(UTC+00:00)
Language:

AEROCUBE 6A - Orbit

View from above orbital plane
View from above orbital plane
View from above satellite
View from above satellite

Ground track
Ground track

The orbit data is extracted from the following two-line orbital elements,

1 40045U 14033AM  17231.09675083 +.00000396 +00000-0 +64902-4 0  9999
2 40045 097.8607 115.0239 0059893 086.8671 273.9389 14.74863581169759
Epoch (UTC): 19 August 2017 02:19:19
Eccentricity: 0.0059893
inclination: 97.8607°
perigee height: 603 km
apogee height: 687 km
right ascension of ascending node: 115.0239°
argument of perigee: 86.8671°
revolutions per day: 14.74863581
mean anomaly at epoch: 273.9389°
orbit number at epoch: 16975

The dashed part of the orbit path shows where the satellite is in the earth's shadow,  

DLR